#timestamp,LO_Frequency,Hit,StdDev 
1635184815.1,286046996.7,N
1635184835.9,286046998.7,N
1635184855.7,286046999.4,N
1635184875.5,286046999.4,N
1635184895.4,286046997.0,N
1635184915.2,286046996.9,N
1635184935.0,286046996.8,N
1635184935.9,286046996.8,N
1635184955.8,286046997.0,N
1635184975.6,286046999.0,N
1635184995.5,286046999.0,N
1635185015.3,286046998.6,N
1635185035.1,286046996.5,N
1635185055.9,286046998.2,N
1635185075.7,286046999.4,N
1635185095.5,286046998.8,N
1635185115.4,286046999.6,N
1635185135.2,286046998.9,N
1635185155.1,286046997.1,N
1635185156.0,286046997.1,N
1635185175.8,286046996.9,N
1635185195.6,286046999.1,N
1635185215.5,286046999.5,N
1635185235.3,286046997.9,N
1635185255.2,286046997.1,N
1635185275.9,286046997.1,N
1635185295.7,286046997.2,N
1635185315.6,286046997.9,N
1635185335.4,286046996.7,Y
1635185355.3,286046998.4,P
1635185375.1,286046999.2,P
1635185376.0,286046999.2,N
1635185395.8,286046998.8,N
1635185415.7,286046999.6,N
1635185435.5,286046997.2,Y
1635185455.3,286046999.1,P
1635185475.2,286046998.7,P
1635185495.0,286046998.7,P
1635185495.9,286046998.7,Y
1635185515.8,286047001.9,P
1635185535.6,286047001.9,N
1635185555.4,286047001.8,N
1635185575.3,286047001.5,N
1635185595.1,286047001.9,N
1635185615.9,286047002.1,N
1635185635.7,286047002.8,N
1635185655.5,286047001.6,N
1635185675.4,286047001.8,N
1635185695.2,286047002.1,N
1635185715.0,286047002.1,N
1635185715.9,286047002.1,N
1635185735.8,286047002.7,Y
1635185755.6,286047000.9,P
1635185775.5,286047000.6,N
1635185795.3,286047000.1,N
1635185815.1,286047000.4,N
1635185835.9,286047000.5,N
1635185855.7,286047000.5,N
1635185875.5,286047001.0,N
1635185895.4,286047000.4,N
1635185915.2,286047000.8,N
1635185935.1,286046998.5,Y
1635185936.0,286046998.5,P
1635185955.8,286046998.6,N
1635185975.6,286047001.2,N
1635185995.5,286047000.9,N
1635186015.3,286047000.2,N
1635186035.1,286047002.8,N
1635186055.9,286047000.2,N
1635186075.7,286047000.1,N
1635186095.6,286047002.3,N
1635186115.4,286047004.2,Y
1635186135.2,286047002.1,P
1635186155.1,286047002.8,P
1635186156.0,286047002.8,N
1635186175.8,286047000.2,N
1635186195.7,286047002.4,N
1635186215.5,286047002.1,N
1635186235.3,286047001.7,N
1635186255.2,286047002.1,N
1635186275.0,286047003.9,Y
1635186275.9,286047003.9,P
1635186295.8,286046999.7,N
1635186315.6,286046999.7,N
1635186335.4,286047000.6,N
1635186355.3,286046999.9,N
1635186375.1,286047000.0,N
1635186395.8,286047001.1,N
1635186415.7,286047001.1,N
1635186435.5,286047000.0,N
1635186455.4,286047000.3,N
1635186475.2,286046998.2,N
1635186495.0,286046998.4,N
1635186495.9,286046998.4,N
1635186515.8,286047000.8,N
1635186535.6,286047000.7,N
1635186555.4,286046998.1,N
1635186575.3,286046998.7,N
1635186595.1,286046998.3,N
1635186615.9,286046998.1,N
1635186635.7,286046998.7,N
1635186655.5,286046998.6,N
1635186675.4,286047000.7,N
1635186695.2,286047000.7,N
1635186715.0,286047000.4,N
1635186715.9,286047000.4,N
1635186735.8,286047000.6,N
1635186755.6,286047000.9,N
1635186775.5,286046998.4,N
1635186795.3,286046999.1,N
1635186815.1,286046999.3,N
1635186835.9,286046998.1,N
1635186855.7,286046998.2,N
1635186875.5,286047000.6,N
1635186895.4,286046998.5,N
1635186915.2,286047000.3,N
1635186935.1,286046998.3,N
1635186936.0,286046998.3,N
1635186955.8,286046998.5,N
1635186975.6,286046998.7,N
1635186995.5,286046998.7,N
1635187015.3,286046998.8,N
1635187035.1,286047000.0,N
1635187055.9,286046999.9,N
1635187075.7,286047002.7,N
1635187095.6,286047001.6,N
1635187115.4,286047000.3,N
1635187135.2,286047000.8,N
1635187155.1,286047000.7,N
1635187156.0,286047000.7,N
1635187175.8,286046998.2,N
1635187195.6,286047000.1,N
1635187215.5,286047000.4,N
1635187235.3,286047000.0,N
1635187255.2,286046999.7,N
1635187275.9,286047002.8,N
1635187295.7,286047000.1,N
1635187315.6,286047002.8,N
1635187335.4,286047002.8,N
1635187355.3,286047002.4,N
1635187375.1,286047002.1,N
1635187376.0,286047002.1,N
1635187395.8,286047001.3,N
1635187415.7,286047001.7,N
1635187435.5,286047002.1,N
1635187455.3,286047001.5,N
1635187475.2,286047001.3,N
1635187495.0,286047001.9,N
1635187495.9,286047001.9,N
1635187515.8,286047001.8,N
1635187535.6,286047003.9,Y
1635187555.4,286047002.2,P
1635187575.3,286047000.3,N
1635187595.1,286047000.4,N
1635187615.8,286047000.3,N
1635187635.7,286047000.7,N
1635187655.5,286047000.9,N
1635187675.4,286047000.1,N
1635187695.2,286047000.5,N
1635187715.0,286046998.1,Y
1635187715.9,286046998.1,P
1635187735.8,286047000.9,N
1635187755.6,286047000.0,N
1635187775.4,286047000.9,N
1635187795.3,286047000.2,N
1635187815.1,286047000.5,N
1635187835.9,286047000.9,N
1635187855.7,286047001.1,N
1635187875.5,286047000.8,N
1635187895.4,286047001.2,N
1635187915.2,286046998.6,N
1635187935.0,286046998.1,N
1635187935.9,286046998.1,N
1635187955.8,286046998.1,N
1635187975.6,286046999.4,N
1635187995.5,286046999.2,N
1635188015.3,286046999.3,N
1635188035.1,286046998.4,N
1635188055.9,286047001.2,N
1635188075.7,286047000.5,N
1635188095.5,286047002.5,N
1635188115.4,286047002.8,N
1635188135.2,286047002.7,N
1635188155.1,286047001.5,N
1635188156.0,286047001.5,N
1635188175.8,286047001.5,N
1635188195.6,286047002.1,N
1635188215.5,286047001.6,N
1635188235.3,286047002.6,N
1635188255.1,286047002.3,N
1635188275.9,286046999.7,N
1635188295.7,286047002.8,N
1635188315.6,286047002.3,N
1635188335.4,286047002.4,N
1635188355.2,286047002.8,N
1635188375.1,286047000.2,N
1635188376.0,286047000.2,N
1635188395.8,286047000.3,N
